This is the latest recevied weather packets stored in our database for station/object IT9CNT. If no packets are shown the sender has not sent any weather packets the latest 10 day(s).
| Time | Temp. | Humidity | Pressure | Rain* | Wind** | Luminosity | Snow |
|---|---|---|---|---|---|---|---|
| 1787491923 | 32.22° C | 69% | 1012.9 hPa | 0 mm | - | - | - |
| 1787491863 | 32.78° C | 69% | 1012.6 hPa | 0 mm | - | - | - |
| 1787491803 | 32.22° C | 69% | 1012.7 hPa | 0 mm | - | - | - |
| 1787491743 | 32.22° C | 69% | 1012.8 hPa | 0 mm | - | - | - |
| 1787491683 | 32.22° C | 71% | 1012.8 hPa | 0 mm | - | - | - |
| 1787491623 | 32.22° C | 70% | 1012.7 hPa | 0 mm | - | - | - |
| 1787491563 | 32.22° C | 69% | 1012.6 hPa | 0 mm | - | - | - |
| 1787491503 | 32.78° C | 70% | 1012.7 hPa | 0 mm | - | - | - |
| 1787491443 | 32.22° C | 71% | 1012.7 hPa | 0 mm | - | - | - |
| 1787491383 | 32.78° C | 70% | 1012.7 hPa | 0 mm | - | - | - |
| 1787491323 | 32.22° C | 70% | 1012.6 hPa | 0 mm | - | - | - |
| 1787491263 | 33.33° C | 67% | 1012.7 hPa | 0 mm | - | - | - |
| 1787491203 | 32.78° C | 66% | 1012.7 hPa | 0 mm | - | - | - |
| 1787491143 | 33.33° C | 66% | 1012.8 hPa | 0 mm | - | - | - |
| 1787491083 | 33.33° C | 68% | 1012.6 hPa | 0 mm | - | - | - |
| 1787491023 | 33.33° C | 68% | 1012.8 hPa | 0 mm | - | - | - |
| 1787490963 | 33.33° C | 67% | 1012.7 hPa | 0 mm | - | - | - |
| 1787490903 | 33.33° C | 67% | 1012.8 hPa | 0 mm | - | - | - |
| 1787490844 | 33.33° C | 66% | 1012.6 hPa | 0 mm | - | - | - |
| 1787490783 | 33.33° C | 68% | 1012.5 hPa | 0 mm | - | - | - |
| 1787490723 | 32.78° C | 69% | 1012.7 hPa | 0 mm | - | - | - |
| 1787490664 | 33.33° C | 67% | 1012.8 hPa | 0 mm | - | - | - |
| 1787490604 | 33.89° C | 67% | 1012.7 hPa | 0 mm | - | - | - |
| 1787490543 | 33.33° C | 68% | 1012.6 hPa | 0 mm | - | - | - |
| 1787490484 | 33.33° C | 69% | 1012.8 hPa | 0 mm | - | - | - |
* Rain latest hour (hover to see other rain measurements)
** Current wind speed in m/s (hover to see current wind gust speed)